TimeEST,TemperatureF,Dew PointF,Humidity,Sea Level PressureIn,VisibilityMPH,Wind Direction,Wind SpeedMPH,Gust SpeedMPH,PrecipitationIn,Events,Conditions,WindDirDegrees,DateUTC
12:53 AM,68.0,66.0,93,30.02,10.0,NNE,3.5,-,N/A,,Clear,30,2013-11-08 05:53:00
1:53 AM,66.0,64.9,96,30.01,10.0,NNE,3.5,-,N/A,,Clear,20,2013-11-08 06:53:00
2:53 AM,66.9,64.9,93,30.02,10.0,North,5.8,-,N/A,,Clear,10,2013-11-08 07:53:00
3:53 AM,66.0,64.0,93,30.03,10.0,North,5.8,-,N/A,,Clear,360,2013-11-08 08:53:00
4:53 AM,64.9,64.0,97,30.03,10.0,NNE,4.6,-,N/A,,Clear,20,2013-11-08 09:53:00
5:53 AM,66.0,64.9,96,30.04,10.0,NNE,6.9,-,N/A,,Clear,30,2013-11-08 10:53:00
6:53 AM,66.0,64.9,96,30.06,8.0,NNE,9.2,-,N/A,,Clear,30,2013-11-08 11:53:00
7:53 AM,69.1,66.0,90,30.06,10.0,NE,10.4,-,N/A,,Clear,40,2013-11-08 12:53:00
8:53 AM,73.9,66.9,79,30.08,10.0,NE,13.8,-,N/A,,Clear,50,2013-11-08 13:53:00
9:53 AM,78.1,66.9,68,30.09,10.0,NE,11.5,-,N/A,,Clear,40,2013-11-08 14:53:00
10:53 AM,80.1,66.9,64,30.09,10.0,ENE,11.5,-,N/A,,Partly Cloudy,60,2013-11-08 15:53:00
11:53 AM,82.0,66.9,60,30.06,10.0,NE,13.8,-,N/A,,Clear,40,2013-11-08 16:53:00
12:53 PM,84.0,66.0,55,30.04,10.0,NE,15.0,-,N/A,,Clear,40,2013-11-08 17:53:00
1:53 PM,84.0,64.9,53,30.02,10.0,NE,10.4,21.9,N/A,,Clear,50,2013-11-08 18:53:00
2:53 PM,84.0,64.0,51,30.02,10.0,NE,16.1,-,N/A,,Partly Cloudy,40,2013-11-08 19:53:00
3:53 PM,82.9,63.0,51,30.03,10.0,NE,15.0,20.7,N/A,,Scattered Clouds,50,2013-11-08 20:53:00
4:53 PM,79.0,63.0,58,30.04,10.0,NE,11.5,-,N/A,,Mostly Cloudy,50,2013-11-08 21:53:00
5:53 PM,78.1,64.0,62,30.05,10.0,NE,12.7,-,N/A,,Overcast,50,2013-11-08 22:53:00
6:53 PM,75.0,64.0,69,30.08,10.0,NE,12.7,19.6,N/A,,Mostly Cloudy,50,2013-11-08 23:53:00
7:53 PM,73.9,64.0,71,30.10,10.0,NE,12.7,-,N/A,,Mostly Cloudy,50,2013-11-09 00:53:00
8:53 PM,71.1,64.0,78,30.11,10.0,NE,10.4,-,N/A,,Clear,40,2013-11-09 01:53:00
9:24 PM,70.0,64.0,81,30.11,10.0,NE,11.5,-,N/A,,Mostly Cloudy,40,2013-11-09 02:24:00
9:53 PM,70.0,64.0,81,30.11,10.0,NE,11.5,-,N/A,,Mostly Cloudy,40,2013-11-09 02:53:00
10:05 PM,69.1,63.0,81,30.11,10.0,NE,8.1,-,N/A,,Scattered Clouds,40,2013-11-09 03:05:00
10:53 PM,68.0,63.0,84,30.11,10.0,NE,10.4,-,N/A,,Clear,40,2013-11-09 03:53:00
11:53 PM,68.0,63.0,84,30.11,10.0,NNE,9.2,-,N/A,,Scattered Clouds,30,2013-11-09 04:53:00